TimeCST,TemperatureF,Dew PointF,Humidity,Sea Level PressureIn,VisibilityMPH,Wind Direction,Wind SpeedMPH,Gust SpeedMPH,PrecipitationIn,Events,Conditions,WindDirDegrees,DateUTC
12:18 AM,46.4,42.8,87,30.08,10.0,NNE,5.8,-,N/A,,Overcast,20,2014-02-26 06:18:00
12:58 AM,45.5,41.9,87,30.09,10.0,NNE,5.8,-,N/A,,Overcast,30,2014-02-26 06:58:00
1:36 AM,44.6,41.0,87,30.10,10.0,NNE,13.8,-,N/A,Rain,Light Rain Showers,20,2014-02-26 07:36:00
1:46 AM,44.6,41.0,87,30.12,5.0,NNE,10.4,19.6,N/A,Rain,Light Rain Showers,20,2014-02-26 07:46:00
1:58 AM,44.1,40.5,87,30.11,5.0,NNE,12.7,21.9,0.03,Rain,Light Rain Showers,30,2014-02-26 07:58:00
2:10 AM,42.8,39.2,87,30.07,6.0,NE,15.0,24.2,N/A,,Mostly Cloudy,40,2014-02-26 08:10:00
2:27 AM,42.8,39.2,87,30.12,9.0,NNE,13.8,19.6,N/A,Rain,Light Rain Showers,20,2014-02-26 08:27:00
2:58 AM,41.0,37.6,88,30.12,10.0,NE,10.4,24.2,0.10,,Mostly Cloudy,40,2014-02-26 08:58:00
3:23 AM,41.0,35.6,81,30.12,10.0,NNE,13.8,20.7,N/A,,Overcast,30,2014-02-26 09:23:00
3:33 AM,39.2,35.6,87,30.12,10.0,NNE,8.1,-,N/A,,Mostly Cloudy,20,2014-02-26 09:33:00
3:58 AM,39.7,35.8,86,30.13,10.0,NNE,8.1,19.6,0.00,,Overcast,30,2014-02-26 09:58:00
4:58 AM,39.7,34.0,80,30.16,10.0,NNE,11.5,-,N/A,,Overcast,30,2014-02-26 10:58:00
5:58 AM,39.2,32.2,76,30.18,10.0,NE,8.1,-,N/A,,Mostly Cloudy,40,2014-02-26 11:58:00
6:18 AM,39.2,32.0,75,30.18,10.0,NNE,8.1,20.7,N/A,,Overcast,30,2014-02-26 12:18:00
6:28 AM,39.2,32.0,75,30.18,10.0,NE,13.8,18.4,N/A,,Overcast,40,2014-02-26 12:28:00
6:38 AM,39.2,32.0,75,30.18,10.0,NNE,10.4,18.4,N/A,,Overcast,30,2014-02-26 12:38:00
6:58 AM,38.5,31.6,76,30.20,10.0,NE,9.2,18.4,N/A,,Overcast,40,2014-02-26 12:58:00
7:58 AM,38.1,30.4,74,30.21,10.0,NE,8.1,-,N/A,,Overcast,40,2014-02-26 13:58:00
8:58 AM,38.5,26.2,61,30.23,10.0,NNE,11.5,21.9,N/A,,Overcast,20,2014-02-26 14:58:00
9:58 AM,39.9,27.0,60,30.23,10.0,NE,9.2,-,N/A,,Mostly Cloudy,40,2014-02-26 15:58:00
10:58 AM,40.1,26.8,59,30.22,10.0,North,12.7,-,N/A,,Mostly Cloudy,10,2014-02-26 16:58:00
11:58 AM,41.9,25.2,52,30.21,10.0,North,11.5,20.7,N/A,,Mostly Cloudy,10,2014-02-26 17:58:00
12:58 PM,42.4,25.5,51,30.18,10.0,North,11.5,-,N/A,,Scattered Clouds,360,2014-02-26 18:58:00
1:58 PM,43.7,22.6,43,30.15,10.0,North,6.9,-,N/A,,Partly Cloudy,10,2014-02-26 19:58:00
2:58 PM,44.8,23.4,43,30.14,10.0,North,8.1,-,N/A,,Scattered Clouds,10,2014-02-26 20:58:00
3:58 PM,44.2,22.3,42,30.12,10.0,North,12.7,-,N/A,,Scattered Clouds,360,2014-02-26 21:58:00
4:58 PM,42.4,21.4,43,30.13,10.0,North,11.5,-,N/A,,Clear,360,2014-02-26 22:58:00
5:58 PM,40.8,21.2,46,30.13,10.0,North,11.5,-,N/A,,Clear,360,2014-02-26 23:58:00
6:58 PM,37.9,23.0,55,30.14,10.0,North,3.5,-,N/A,,Clear,10,2014-02-27 00:58:00
7:58 PM,38.3,22.3,53,30.13,10.0,Calm,Calm,-,N/A,,Clear,0,2014-02-27 01:58:00
8:58 PM,34.9,23.5,63,30.14,10.0,Calm,Calm,-,N/A,,Clear,0,2014-02-27 02:58:00
9:58 PM,34.2,25.3,70,30.15,10.0,Calm,Calm,-,N/A,,Clear,0,2014-02-27 03:58:00
10:58 PM,30.9,25.5,80,30.15,10.0,Calm,Calm,-,N/A,,Clear,0,2014-02-27 04:58:00
11:58 PM,31.8,25.2,76,30.14,10.0,North,3.5,-,N/A,,Clear,350,2014-02-27 05:58:00